Regional Weather Roundup
Issued by NWS Midland/Odessa, TX

Skip options and go directly to product.
Home | Oldest Version | Next Version | Current Version | All | Text Only | Save Text | Print | Product List | Glossary On

Skip product version selection by date and time.   
674
ASUS44 KMAF 240501
RWRMAF
MIDLAND AREA WEATHER ROUNDUP
NATIONAL WEATHER SERVICE MIDLAND TX
1200 AM CDT FRI JUN 24 2016

...IN SOUTHWEST TEXAS AND SOUTHEAST NEW MEXICO...

CITY           SKY/WX    TMP DP  RH WIND       PRES   REMARKS
ALPINE         CLEAR     77  49  36 SE15G21   30.16S
ANDREWS        FAIR      80  57  45 S8        30.08R
ARTESIA        PTCLDY    86  54  32 SE9G17    30.06R
BIG SPRING     CLEAR     78  55  46 SE9       30.06R
CARLSBAD       CLOUDY    86  54  33 SE17G24   30.01R
DRYDEN           N/A     84  58  40 E15G22    30.00R
FORT STOCKTON  CLEAR     81  57  43 SE16G28   30.02S
GUAD PASS      MOCLDY    80  49  33 NE21      30.21R
HOBBS          CLEAR     77  50  38 SE9       30.09R
MARFA          CLEAR    N/A N/A N/A NE9       30.15R
MIDLAND AIRPK  CLEAR     84  56  37 S10G16    30.06R
MIDLAND INTL   CLEAR     83  57  41 S13       30.05R
ODESSA         CLEAR     83  58  42 S9        30.06R
PECOS          CLEAR     85  56  37 E18       29.98S
PRESIDIO       FAIR      90  52  27 NE17G30   29.95R
SEMINOLE       CLEAR     80  54  40 S12       30.08S
SNYDER           N/A     78  61  55 SE8       30.05R
WINK           CLEAR     84  56  38 SE18G24   30.01R
$$
...OTHER STATIONS IN TEXAS...

CITY           SKY/WX    TMP DP  RH WIND       PRES   REMARKS
ABILENE        CLEAR     80  65  59 S13       30.03R
AMARILLO       PTCLDY    78  58  49 S13       30.06S
AUSTIN         PTCLDY    78  72  81 S8        30.04R
BROWNSVILLE    CLEAR     81  75  82 SE8       30.02R
CORPUS CHRISTI MOCLDY    82  75  79 SE10      30.01R
DALLAS FTW     CLEAR     84  68  58 S9        29.99R
DEL RIO        CLOUDY    85  64  49 E13G23    29.96R
EL PASO        TSTM      90  48  23 SE13G23   30.04R
HOUSTON INT    MOCLDY    80  71  74 S3        30.04R
LUBBOCK        CLEAR     81  57  43 S14       30.07R
SAN ANGELO     CLEAR     78  63  59 S7        30.03R
SAN ANTONIO    PTCLDY    78  71  79 SE12      30.05R
WACO           CLEAR     83  70  64 S15       30.01R
WICHITA FALLS  NOT AVBL
$$
...OTHER LOCATIONS IN NEW MEXICO...

CITY           SKY/WX    TMP DP  RH WIND       PRES   REMARKS
ALAMAGORDO     CLOUDY    82  48  30 S14       30.08R
ALBUQUERQUE    CLOUDY    78  49  35 N8        30.18S
CANNON AFB     CLOUDY    80  55  41 S6        30.13R
CLOVIS         MOCLDY    79  54  41 SW6       30.14R
HOLLOMAN AFB   CLOUDY    81  52  37 S10       30.05R
ROSWELL        TSTM      75  59  57 N18       30.12R
RUIDOSO          N/A     64  50  59 S12       30.35S
SANTA FE       CLOUDY    70  50  49 E8        30.28F
TRUTH OR CONSE PTCLDY    77  51  40 NW8       30.12S
TUCUMCARI      LGT RAIN  74  63  68 S21       30.06F
$$

USA.gov is the U.S. government's official web portal to all federal, state and local government web resources and services.